This is the latest recevied weather packets stored in our database for station/object HF3P-11. If no packets are shown the sender has not sent any weather packets the latest 10 day(s).
| Time | Temp. | Humidity | Pressure | Rain* | Wind** | Luminosity | Snow |
|---|---|---|---|---|---|---|---|
| 1787819096 | 21.11° C | 67% | 1015.7 hPa | 0 mm | - | - | - |
| 1787818795 | 20.56° C | 67% | 1015.7 hPa | 0 mm | - | - | - |
| 1787818496 | 20.56° C | 67% | 1015.6 hPa | 0 mm | - | - | - |
| 1787818205 | 20.56° C | 67% | 1015.7 hPa | 0 mm | - | - | - |
| 1787817895 | 20.56° C | 71% | 1015.6 hPa | 0 mm | - | - | - |
| 1787817596 | 20.56° C | 71% | 1015.7 hPa | 0 mm | - | - | - |
| 1787817304 | 20° C | 69% | 1015.6 hPa | 0 mm | - | - | - |
| 1787816996 | 20° C | 71% | 1015.6 hPa | 0 mm | - | - | - |
| 1787816705 | 20° C | 71% | 1015.7 hPa | 0 mm | - | - | - |
| 1787816409 | 19.44° C | 73% | 1015.6 hPa | 0 mm | - | - | - |
| 1787816096 | 19.44° C | 73% | 1015.7 hPa | 0 mm | - | - | - |
| 1787815797 | 19.44° C | 75% | 1015.5 hPa | 0 mm | - | - | - |
| 1787815496 | 18.89° C | 74% | 1015.6 hPa | 0 mm | - | - | - |
| 1787815196 | 18.89° C | 75% | 1015.4 hPa | 0 mm | - | - | - |
| 1787814896 | 18.89° C | 78% | 1015.4 hPa | 0 mm | - | - | - |
| 1787814595 | 18.89° C | 77% | 1015.5 hPa | 0 mm | - | - | - |
| 1787814296 | 18.89° C | 77% | 1015.6 hPa | 0 mm | - | - | - |
| 1787814006 | 18.89° C | 78% | 1015.6 hPa | 0 mm | - | - | - |
| 1787813704 | 18.89° C | 76% | 1015.4 hPa | 0 mm | - | - | - |
| 1787813405 | 19.44° C | 75% | 1015.5 hPa | 0 mm | - | - | - |
| 1787813097 | 20° C | 75% | 1015.6 hPa | 0 mm | - | - | - |
| 1787812805 | 20° C | 76% | 1015.6 hPa | 0 mm | - | - | - |
| 1787812504 | 19.44° C | 80% | 1015.4 hPa | 0 mm | - | - | - |
| 1787812205 | 18.33° C | 83% | 1015.4 hPa | 0 mm | - | - | - |
| 1787811904 | 17.78° C | 85% | 1015.4 hPa | 0 mm | - | - | - |
* Rain latest hour (hover to see other rain measurements)
** Current wind speed in m/s (hover to see current wind gust speed)